YO9IPZ-13 Weather Reports


time (UTC)temp
C
wind
direction
speed
KPH
gust
KPH
rain 1hr
cm
rain 24hr
cm
rain mn
cm
humidity
%
barometer
mb
20201126035059 1 270 8.0 11.3 0.00 0.00 0.00 69 1025.0
20201126034520 1 272 6.4 11.3 0.00 0.00 0.00 69 1025.0
20201126033521 1 273 4.8 9.7 0.00 0.00 0.00 69 1025.0
20201126033030 1 271 8.0 9.7 0.00 0.00 0.00 69 1025.0
20201126032602 2 272 6.4 9.7 0.00 0.00 0.00 69 1025.0
20201126032025 2 271 6.4 11.3 0.00 0.00 0.00 69 1025.0
20201126031554 2 276 6.4 9.7 0.00 0.00 0.00 68 1025.0
20201126031024 2 275 6.4 12.9 0.00 0.00 0.00 68 1025.0
20201126030519 2 272 4.8 8.0 0.00 0.00 0.00 67 1024.6
20201126030019 2 275 4.8 9.7 0.00 0.00 0.00 67 1024.0
20201126025522 2 272 4.8 9.7 0.00 0.00 0.00 67 1024.0
20201126025021 2 271 6.4 9.7 0.00 0.00 0.00 67 1024.0
20201126024024 2 282 4.8 9.7 0.00 0.00 0.00 66 1024.0
20201126023022 2 272 6.4 9.7 0.00 0.00 0.00 65 1024.0
20201126022545 2 269 6.4 9.7 0.00 0.00 0.00 65 1024.0
20201126022021 2 272 4.8 8.0 0.00 0.00 0.00 64 1024.3
20201126021522 3 274 4.8 8.0 0.00 0.00 0.00 64 1025.0
20201126020522 3 270 4.8 9.7 0.00 0.00 0.00 64 1025.0
20201126014526 3 288 3.2 6.4 0.00 0.00 0.00 64 1024.0
20201126013021 3 309 4.8 9.7 0.00 0.00 0.00 63 1024.0
20201126011525 3 292 4.8 6.4 0.00 0.00 0.00 63 1024.0
20201126011029 3 305 4.8 6.4 0.00 0.00 0.00 63 1024.0
20201126010548 3 297 3.2 6.4 0.00 0.00 0.00 63 1024.3
20201126010022 3 305 4.8 6.4 0.00 0.00 0.00 63 1025.0
20201126005543 3 297 3.2 6.4 0.00 0.00 0.00 62 1025.0
20201126005025 3 277 3.2 4.8 0.00 0.00 0.00 63 1025.0
20201126004523 3 270 4.8 6.4 0.00 0.00 0.00 63 1025.0
20201126004036 3 269 3.2 6.4 0.00 0.00 0.00 63 1025.0
20201126003029 3 250 1.6 3.2 0.00 0.00 0.00 62 1024.0
20201126002523 3 232 1.6 4.8 0.00 0.00 0.00 62 1024.0
20201126002041 3 254 1.6 4.8 0.00 0.00 0.00 62 1024.3
20201126001522 3 262 1.6 3.2 0.00 0.00 0.00 62 1025.0
20201126001030 3 270 1.6 3.2 0.00 0.00 0.00 62 1025.0
20201126000524 3 268 1.6 3.2 0.00 0.00 0.00 62 1025.0
20201126000021 3 243 1.6 3.2 0.00 0.00 0.00 62 1025.0
20201125235522 3 225 0.0 3.2 0.00 0.00 0.00 62 1025.0
20201125235056 3 225 1.6 4.8 0.00 0.00 0.00 62 1024.7
20201125234524 3 225 1.6 3.2 0.00 0.00 0.00 62 1024.0
20201125234024 3 225 1.6 4.8 0.00 0.00 0.00 62 1024.0
20201125233520 3 236 1.6 6.4 0.00 0.00 0.00 62 1024.3
20201125233043 3 255 3.2 4.8 0.00 0.00 0.00 62 1025.0
20201125232517 3 256 3.2 4.8 0.00 0.00 0.00 62 1025.0
20201125230521 3 235 3.2 4.8 0.00 0.00 0.00 61 1024.0
20201125230023 3 231 3.2 4.8 0.00 0.00 0.00 61 1024.0
20201125225517 3 230 3.2 8.0 0.00 0.00 0.00 61 1024.0
20201125225044 3 229 3.2 4.8 0.00 0.00 0.00 61 1024.0
20201125224523 3 234 3.2 6.4 0.00 0.00 0.00 61 1024.0
20201125224023 3 235 3.2 4.8 0.00 0.00 0.00 61 1024.0
20201125223524 3 234 3.2 6.4 0.00 0.00 0.00 61 1024.3
20201125222541 4 257 4.8 6.4 0.00 0.00 0.00 62 1025.0
20201125222043 4 248 4.8 8.0 0.00 0.00 0.00 62 1025.0
20201125221559 4 241 4.8 6.4 0.00 0.00 0.00 62 1025.0
20201125221029 4 243 3.2 6.4 0.00 0.00 0.00 62 1025.0
20201125220521 4 232 4.8 9.7 0.00 0.00 0.00 62 1025.0
20201125220101 4 227 6.4 9.7 0.00 0.00 0.00 62 1025.0
20201125215523 4 238 6.4 9.7 0.00 0.00 0.00 63 1025.0
20201125215021 4 229 6.4 9.7 0.00 0.00 0.00 63 1025.0
20201125214526 4 239 6.4 9.7 0.00 0.00 0.00 62 1025.0
20201125214031 4 240 4.8 8.0 0.00 0.00 0.00 62 1025.0
20201125213521 4 247 6.4 8.0 0.00 0.00 0.00 62 1025.0
20201125212520 4 238 6.4 9.7 0.00 0.00 0.00 62 1025.0
20201125212029 4 241 4.8 9.7 0.00 0.00 0.00 62 1024.7
20201125211521 5 241 6.4 8.0 0.00 0.00 0.00 62 1024.0
20201125211028 5 232 4.8 6.4 0.00 0.00 0.00 62 1024.0
20201125210530 5 234 6.4 11.3 0.00 0.00 0.00 62 1024.3
20201125210050 5 228 6.4 12.9 0.00 0.00 0.00 62 1025.0
20201125205545 5 238 4.8 9.7 0.00 0.00 0.00 62 1025.0
20201125204601 5 233 6.4 12.9 0.00 0.00 0.00 62 1025.0
20201125204030 5 233 6.4 11.3 0.00 0.00 0.00 62 1025.0
20201125203523 5 229 6.4 9.7 0.00 0.00 0.00 62 1025.0
20201125202521 5 229 6.4 14.5 0.00 0.00 0.00 61 1025.0
20201125202021 5 228 6.4 12.9 0.00 0.00 0.00 61 1025.0
20201125201521 5 227 6.4 16.1 0.00 0.00 0.00 61 1025.0
20201125201025 5 221 8.0 14.5 0.00 0.00 0.00 61 1025.0
20201125200600 5 221 6.4 11.3 0.00 0.00 0.00 61 1024.7
20201125200047 5 229 6.4 12.9 0.00 0.00 0.00 61 1024.0
20201125195519 5 225 6.4 9.7 0.00 0.00 0.00 61 1024.0
20201125195023 5 229 4.8 9.7 0.00 0.00 0.00 61 1024.0
20201125194541 5 228 4.8 6.4 0.00 0.00 0.00 61 1024.0
20201125194042 -17 225 4.8 4.8 0.00 0.00 0.00 1024.0
20201125193521 -17 225 6.4 6.4 0.00 0.00 0.00 1024.3
20201125193022 5 232 6.4 9.7 0.00 0.00 0.00 61 1025.0
20201125192521 5 234 4.8 8.0 0.00 0.00 0.00 60 1025.0
20201125192019 5 236 4.8 14.5 0.00 0.00 0.00 60 1025.0
20201125191521 5 231 4.8 9.7 0.00 0.00 0.00 60 1025.0
20201125191024 5 224 6.4 9.7 0.00 0.00 0.00 59 1025.0
20201125190521 5 228 6.4 11.3 0.00 0.00 0.00 60 1024.7
20201125190025 5 225 6.4 12.9 0.00 0.00 0.00 59 1024.0
20201125185552 5 230 8.0 9.7 0.00 0.00 0.00 58 1024.0
20201125184532 5 233 6.4 9.7 0.00 0.00 0.00 58 1024.0
20201125184026 5 229 6.4 9.7 0.00 0.00 0.00 57 1024.0
20201125183526 5 223 6.4 12.9 0.00 0.00 0.00 58 1024.3
20201125183019 5 230 4.8 9.7 0.00 0.00 0.00 58 1025.0
20201125182522 5 235 4.8 6.4 0.00 0.00 0.00 57 1025.0
20201125182026 6 224 4.8 9.7 0.00 0.00 0.00 56 1025.0
20201125181522 6 229 4.8 9.7 0.00 0.00 0.00 56 1025.0
20201125180521 6 229 4.8 11.3 0.00 0.00 0.00 55 1025.0
20201125180030 6 227 4.8 6.4 0.00 0.00 0.00 55
20201125175024 6 231 4.8 9.7 0.00 0.00 0.00 55 1025.0
20201125174520 6 236 4.8 9.7 0.00 0.00 0.00 54 1025.0
20201125174043 6 226 6.4 9.7 0.00 0.00 0.00 54 1025.0
20201125173518 6 225 4.8 8.0 0.00 0.00 0.00 54 1025.0
20201125172026 6 225 6.4 8.0 0.00 0.00 0.00 54 1025.0
20201125171543 -17 225 6.4 9.7 0.00 0.00 0.00 1025.0
20201125171021 6 221 6.4 9.7 0.00 0.00 0.00 53 1025.0
20201125170524 6 225 6.4 9.7 0.00 0.00 0.00 53 1025.0
20201125170027 6 236 6.4 11.3 0.00 0.00 0.00 53 1025.0
20201125165042 6 223 4.8 8.0 0.00 0.00 0.00 53 1025.0
20201125164521 6 227 6.4 9.7 0.00 0.00 0.00 53 1025.0
20201125164022 6 227 6.4 11.3 0.00 0.00 0.00 53 1025.0
20201125163524 -17 230 6.4 9.7 0.00 0.00 0.00 1024.7
20201125163023 -17 232 4.8 4.8 0.00 0.00 0.00 1024.0
20201125162521 -17 225 4.8 4.8 0.00 0.00 0.00 1024.0
20201125162021 6 235 4.8 9.7 0.00 0.00 0.00 52 1024.3
20201125161521 6 232 6.4 6.4 0.00 0.00 0.00 52 1025.0
20201125160545 7 259 4.8 6.4 0.00 0.00 0.00 51 1024.7
20201125160024 7 237 4.8 4.8 0.00 0.00 0.00 50 1024.0
20201125155031 7 270 3.2 6.4 0.00 0.00 0.00 50 1024.3
20201125154523 -17 0.0 0.0 0.00 0.00 0.00 1025.0
20201125153521 7 263 4.8 9.7 0.00 0.00 0.00 50 1025.0
20201125153037 -17 259 4.8 6.4 0.00 0.00 0.00 1025.0
20201125152024 -17 0.0 0.0 0.00 0.00 0.00 1025.0
20201125151523 8 266 6.4 9.7 0.00 0.00 0.00 48 1025.0
20201125151023 8 268 4.8 9.7 0.00 0.00 0.00 48 1025.0
20201125150521 8 259 4.8 9.7 0.00 0.00 0.00 48 1025.0
20201125145523 8 267 6.4 9.7 0.00 0.00 0.00 47 1025.0
20201125145034 8 270 4.8 9.7 0.00 0.00 0.00 47 1025.0
20201125144535 8 270 6.4 9.7 0.00 0.00 0.00 47 1025.0
20201125144021 8 266 6.4 9.7 0.00 0.00 0.00 47 1025.0
20201125142057 9 275 4.8 8.0 0.00 0.00 0.00 45 1025.0
20201125141521 9 258 6.4 11.3 0.00 0.00 0.00 45 1025.0
20201125141040 9 266 8.0 11.3 0.00 0.00 0.00 45 1025.0
20201125140521 10 256 4.8 11.3 0.00 0.00 0.00 45 1024.7
20201125140035 10 275 6.4 16.1 0.00 0.00 0.00 45 1024.0
20201125135526 10 261 8.0 14.5 0.00 0.00 0.00 44 1024.0
20201125133040 10 261 11.3 19.3 0.00 0.00 0.00 43 1025.0
20201125132522 10 264 6.4 16.1 0.00 0.00 0.00 43 1025.0
20201125132019 10 261 11.3 22.5 0.00 0.00 0.00 43 1025.0
20201125130021 10 266 11.3 19.3 0.00 0.00 0.00 43 1025.0
20201125125536 10 263 11.3 16.1 0.00 0.00 0.00 43 1025.0
20201125125031 10 261 11.3 20.9 0.00 0.00 0.00 43 1025.0
20201125124522 10 257 9.7 19.3 0.00 0.00 0.00 43 1025.0
20201125123526 10 269 11.3 24.1 0.00 0.00 0.00 44 1025.3
20201125123105 10 267 8.0 16.1 0.00 0.00 0.00 44 1026.0
20201125122522 10 262 12.9 17.7 0.00 0.00 0.00 43 1026.0
20201125122030 10 266 11.3 20.9 0.00 0.00 0.00 44 1026.0
20201125121036 10 268 11.3 19.3 0.00 0.00 0.00 45 1026.0
20201125120036 10 266 12.9 24.1 0.00 0.00 0.00 45 1027.0
20201125115519 10 259 6.4 19.3 0.00 0.00 0.00 47 1027.0
20201125114525 9 257 9.7 19.3 0.00 0.00 0.00 47 1026.0
20201125114029 9 267 11.3 20.9 0.00 0.00 0.00 47 1026.0
20201125113535 9 265 11.3 14.5 0.00 0.00 0.00 47 1026.3
20201125113045 9 259 11.3 22.5 0.00 0.00 0.00 47 1027.0
20201125111522 9 257 11.3 20.9 0.00 0.00 0.00 48 1027.0
20201125111038 9 251 9.7 19.3 0.00 0.00 0.00 48 1027.0
20201125110024 9 261 11.3 25.7 0.00 0.00 0.00 49 1027.0
20201125105522 9 263 9.7 19.3 0.00 0.00 0.00 49 1027.0
20201125105020 9 267 12.9 19.3 0.00 0.00 0.00 50 1026.7
20201125104524 8 271 8.0 24.1 0.00 0.00 0.00 51 1026.0
20201125104024 8 264 8.0 20.9 0.00 0.00 0.00 51 1026.0
20201125103516 8 268 8.0 11.3 0.00 0.00 0.00 52 1026.3
20201125103022 8 257 11.3 20.9 0.00 0.00 0.00 51 1027.0
20201125102519 8 258 9.7 20.9 0.00 0.00 0.00 52 1027.0
20201125102023 8 265 8.0 16.1 0.00 0.00 0.00 53 1027.0
20201125101018 8 246 9.7 17.7 0.00 0.00 0.00 53 1027.0
20201125100519 8 240 9.7 20.9 0.00 0.00 0.00 53 1027.3
20201125100025 8 247 9.7 14.5 0.00 0.00 0.00 53 1028.0
20201125095021 7 262 9.7 17.7 0.00 0.00 0.00 56 1027.7
20201125094531 7 254 8.0 14.5 0.00 0.00 0.00 57 1027.0
20201125094022 7 252 8.0 17.7 0.00 0.00 0.00 58 1027.0
20201125093541 7 264 9.7 19.3 0.00 0.00 0.00 58 1027.3
20201125093045 7 255 8.0 17.7 0.00 0.00 0.00 60 1028.0
20201125092519 7 259 8.0 17.7 0.00 0.00 0.00 60 1028.0
20201125092122 7 254 6.4 12.9 0.00 0.00 0.00 62 1028.0
20201125091521 7 256 8.0 12.9 0.00 0.00 0.00 62 1028.0
20201125091027 6 253 6.4 14.5 0.00 0.00 0.00 63 1028.0
20201125090519 6 257 6.4 14.5 0.00 0.00 0.00 64 1028.3
20201125090049 6 256 6.4 14.5 0.00 0.00 0.00 64 1029.0
20201125085530 6 254 4.8 9.7 0.00 0.00 0.00 64 1029.0
20201125085021 6 263 8.0 9.7 0.00 0.00 0.00 65 1028.7
20201125084540 6 262 6.4 14.5 0.00 0.00 0.00 65 1028.0
20201125084021 6 260 6.4 11.3 0.00 0.00 0.00 67 1028.0
20201125083526 6 243 6.4 12.9 0.00 0.00 0.00 67 1028.4
20201125082022 5 247 4.8 9.7 0.00 0.00 0.00 68 1029.0
20201125081545 5 241 4.8 9.7 0.00 0.00 0.00 68 1029.0
20201125080032 5 246 4.8 6.4 0.00 0.00 0.00 67 1029.0
20201125075544 5 247 4.8 8.0 0.00 0.00 0.00 66 1029.0
20201125074526 4 246 4.8 8.0 0.00 0.00 0.00 65 1029.0
20201125074039 4 247 4.8 8.0 0.00 0.00 0.00 65 1029.0
20201125073521 4 230 4.8 11.3 0.00 0.00 0.00 65 1029.0
20201125073022 4 239 4.8 8.0 0.00 0.00 0.00 65 1029.0
20201125072520 4 235 4.8 9.7 0.00 0.00 0.00 65 1029.0
20201125072025 4 244 3.2 6.4 0.00 0.00 0.00 65 1029.0
20201125071030 4 213 3.2 6.4 0.00 0.00 0.00 66 1029.0
20201125070605 3 229 1.6 4.8 0.00 0.00 0.00 66 1029.0
20201125065542 3 216 3.2 4.8 0.00 0.00 0.00 67 1029.0
20201125064537 3 225 1.6 4.8 0.00 0.00 0.00 67 1029.0
20201125064124 3 242 1.6 6.4 0.00 0.00 0.00 67 1029.0
20201125063525 3 213 1.6 4.8 0.00 0.00 0.00 67 1029.0
20201125063102 3 192 3.2 4.8 0.00 0.00 0.00 67 1029.0
20201125062525 2 222 1.6 3.2 0.00 0.00 0.00 67 1029.0
20201125061545 2 208 3.2 4.8 0.00 0.00 0.00 67 1029.0
20201125061029 2 225 3.2 4.8 0.00 0.00 0.00 67 1029.0
20201125060519 2 225 3.2 6.4 0.00 0.00 0.00 67 1028.7
20201125060035 2 247 1.6 4.8 0.00 0.00 0.00 67 1028.0
20201125055525 2 266 1.6 3.2 0.00 0.00 0.00 66 1028.0
20201125055022 2 255 1.6 4.8 0.00 0.00 0.00 66 1028.0
20201125054527 2 257 1.6 3.2 0.00 0.00 0.00 66 1028.0
20201125053521 2 227 1.6 4.8 0.00 0.00 0.00 65 1028.3
20201125053023 2 259 1.6 3.2 0.00 0.00 0.00 65 1029.0
20201125051604 2 267 3.2 4.8 0.00 0.00 0.00 64 1028.0
20201125051017 2 270 3.2 4.8 0.00 0.00 0.00 64 1028.0
20201125050524 2 254 3.2 4.8 0.00 0.00 0.00 64 1028.3
20201125050029 2 263 3.2 6.4 0.00 0.00 0.00 64 1029.0
20201125045522 2 255 3.2 4.8 0.00 0.00 0.00 64 1029.0
20201125045028 2 267 3.2 6.4 0.00 0.00 0.00 64 1029.0
20201125044021 2 234 1.6 4.8 0.00 0.00 0.00 64 1029.0
20201125043542 3 270 4.8 6.4 0.00 0.00 0.00 64 1029.0
20201125043021 3 270 3.2 6.4 0.00 0.00 0.00 64 1029.0
20201125042520 3 270 3.2 4.8 0.00 0.00 0.00 65 1029.0
20201125042023 3 279 1.6 6.4 0.00 0.00 0.00 64 1029.0
20201125041527 3 281 4.8 6.4 0.00 0.00 0.00 64 1029.0
20201125040040 3 272 3.2 6.4 0.00 0.00 0.00 63 1029.0
20201125035521 3 274 6.4 8.0 0.00 0.00 0.00 64 1029.0